Theta_e
287 287 287 287 287 287 287 288 288 288 288 288 287 287 287 288 288 288 288 288 288 288 288 288 288 288 288 289 289 289 289 290 290 291 291 292 292 293 293 293 294 294 294 294 294 294 294 294 294 294 294 294 294 295 295 295 295 296 296 296 296 296 297 296 297 297 297 297 297 298 298 298 298 298 298 298 298 298 298 298 299 299 300 300 300 301
287 287 287 287 287 287 287 287 287 288 287 287 287 287 287 287 287 287 288 288 288 288 288 288 288 288 288 288 289 289 289 290 290 291 291 292 292 292 293 293 293 293 293 293 293 293 293 293 293 294 294 294 294 294 295 295 295 295 295 295 295 296 296 296 296 296 296 296 296 297 297 297 297 297 297 297 297 297 298 298 299 299 299 299 300 300
287 287 287 287 287 287 287 287 287 287 287 287 287 287 287 287 287 287 287 288 288 288 288 288 288 288 288 288 288 289 289 289 290 291 291 291 292 292 292 292 292 292 292 292 293 293 293 293 293 293 294 294 294 294 294 294 294 295 295 295 295 295 295 295 295 295 295 295 296 296 296 296 296 296 296 297 297 297 298 298 298 298 299 299 299 300
286 287 287 287 287 287 287 287 287 287 287 287 287 287 287 287 287 287 287 288 288 288 288 288 288 288 288 288 288 288 289 289 290 290 291 291 291 291 291 291 292 292 292 292 292 292 293 293 293 293 293 293 294 294 294 294 294 294 294 294 294 294 295 295 295 295 295 295 295 295 295 295 296 296 296 296 296 297 297 297 297 298 299 299 299 299
286 286 287 287 287 287 287 287 287 287 287 287 287 287 287 287 287 287 287 287 288 288 288 288 288 288 288 288 288 288 289 289 290 290 290 290 290 290 291 291 291 291 291 292 292 292 292 292 292 293 293 293 293 293 293 293 293 294 294 294 294 294 294 294 294 294 294 294 294 294 295 295 295 295 295 295 296 296 296 296 297 297 298 298 298 299
286 287 287 287 287 287 287 287 287 287 287 287 287 287 287 287 287 287 287 287 288 288 288 288 288 288 288 288 288 288 289 289 289 289 289 289 290 290 290 290 291 291 291 291 291 292 292 292 292 292 292 292 293 293 293 293 293 293 293 293 293 293 293 293 293 293 293 294 294 294 294 294 294 294 295 295 295 295 295 296 296 297 297 297 298 298
287 287 287 287 287 287 287 287 287 287 287 287 287 287 287 287 287 287 287 288 288 288 288 288 288 288 288 288 288 288 288 288 288 288 289 289 289 289 290 290 290 290 290 291 291 291 291 291 291 292 292 292 292 292 292 292 292 292 292 293 293 293 293 293 293 293 293 293 293 293 293 294 294 294 294 294 294 295 295 295 296 296 296 297 297 297
287 287 287 287 286 287 287 287 287 287 287 287 287 287 287 287 287 287 288 288 288 288 288 288 288 288 288 288 288 288 288 288 288 288 288 288 288 289 289 289 289 290 290 290 290 290 291 291 291 291 291 291 291 291 292 292 292 292 292 292 292 292 292 292 292 292 292 292 293 293 293 293 293 293 294 294 294 294 294 295 295 295 296 296 296 297
287 287 287 287 287 287 287 287 287 287 287 287 287 287 287 287 287 288 288 288 288 288 288 288 288 288 288 288 288 288 288 287 288 288 288 288 288 288 288 289 289 289 289 289 290 290 290 290 290 290 290 291 291 291 291 291 291 291 291 291 291 291 291 291 292 292 292 292 292 292 293 293 293 293 293 293 294 294 294 294 294 295 295 295 296 296
287 287 287 287 287 287 287 287 287 287 287 287 287 287 287 287 288 288 288 288 288 288 288 288 288 287 287 287 287 287 287 287 287 287 287 288 288 288 288 288 288 288 288 289 289 289 289 289 290 290 290 290 290 290 290 290 290 290 290 291 291 291 291 291 291 291 292 292 292 292 292 292 293 293 293 293 293 293 294 294 294 294 295 295 295 296
287 287 287 287 287 287 287 287 287 287 287 287 287 288 288 288 288 288 288 288 288 287 287 287 287 287 287 287 287 287 287 287 287 287 287 287 287 287 287 288 288 288 288 288 288 288 288 289 289 289 289 289 289 290 290 290 290 290 290 290 290 290 291 291 291 291 291 291 291 292 292 292 292 293 293 293 293 293 293 294 294 294 294 294 295 295
287 287 287 287 287 287 287 287 287 287 287 288 288 288 288 288 288 288 288 287 287 287 287 287 287 286 286 286 286 286 286 286 287 287 287 287 287 287 287 287 287 287 287 287 287 288 288 288 288 288 289 289 289 289 289 289 289 289 290 290 290 290 290 290 290 291 291 291 291 291 292 292 292 292 293 293 293 293 293 293 294 294 294 294 294 294
287 286 286 286 287 287 287 287 287 288 288 288 288 288 288 288 288 287 287 287 287 286 286 286 286 286 286 286 286 286 286 286 287 287 287 287 287 287 287 287 287 287 287 287 287 287 287 288 288 288 288 288 288 289 289 289 289 289 289 289 289 290 290 290 290 291 291 291 291 292 292 292 292 292 293 293 293 293 293 293 293 294 294 294 294 294
286 286 286 287 287 287 287 288 288 288 288 288 288 288 288 287 287 286 286 286 286 286 286 286 286 286 286 286 286 286 287 287 287 287 287 287 287 287 287 287 287 287 287 287 287 287 288 288 288 288 288 288 288 288 288 288 288 289 289 289 289 290 290 290 291 291 291 291 291 292 292 292 292 292 292 293 293 293 293 293 293 293 293 294 294 294
286 287 287 287 287 288 288 288 288 288 288 288 287 287 286 286 286 286 286 286 286 286 286 286 286 286 286 286 286 287 287 287 287 287 287 287 287 287 287 287 287 287 287 287 287 288 288 288 288 288 288 288 288 288 288 288 288 289 289 289 290 290 290 291 291 291 291 291 291 291 291 291 291 292 292 292 292 292 293 293 293 293 293 293 293 294
287 287 287 288 288 288 288 288 288 288 287 287 286 286 286 285 285 285 286 286 286 286 286 286 286 286 286 286 287 287 287 287 287 287 287 287 287 287 287 287 287 287 287 287 287 288 288 288 288 288 288 288 288 288 288 289 289 289 290 290 290 290 290 290 290 290 290 290 291 291 291 291 291 291 291 291 292 292 292 292 292 293 293 293 293 293
287 288 288 288 288 288 288 287 287 286 286 286 285 285 285 285 285 286 286 286 286 286 286 286 286 286 286 286 287 287 287 287 287 287 287 287 287 287 287 287 287 287 287 287 287 287 287 287 287 287 287 288 288 288 288 289 289 289 289 289 289 289 289 289 290 290 290 290 290 290 290 290 290 291 291 291 291 291 292 292 292 292 292 292 293 293
288 288 288 288 288 287 287 286 286 285 285 285 285 285 285 285 286 286 286 286 286 286 286 286 286 286 287 287 287 287 287 287 287 287 287 287 287 287 287 287 287 287 287 287 287 287 287 287 287 287 287 287 287 288 288 288 288 288 288 288 288 289 289 289 289 289 289 290 290 290 290 290 290 290 290 290 291 291 291 291 291 291 292 292 292 292
288 288 288 287 287 286 286 285 285 285 285 285 285 285 285 286 285 286 286 286 286 286 286 286 286 286 287 287 287 287 287 287 287 287 286 286 286 286 286 286 286 286 286 286 286 286 286 286 286 286 286 287 287 287 287 287 287 288 288 288 288 288 288 289 289 289 289 289 289 289 290 290 290 290 290 290 290 290 290 291 291 291 291 291 291 291
288 287 286 286 286 285 285 285 285 285 285 285 285 286 286 285 285 286 286 286 286 286 286 287 287 287 287 287 287 287 286 286 286 286 286 286 286 286 286 286 286 286 286 286 286 286 286 286 286 286 286 286 286 286 287 287 287 287 287 288 288 288 288 288 288 288 289 289 289 289 289 289 289 289 290 290 290 290 290 290 290 291 291 291 291 291
287 286 285 285 285 285 285 284 285 285 285 285 286 286 286 286 286 286 286 286 287 287 287 287 287 287 287 286 286 286 286 286 285 285 285 285 285 285 285 285 285 286 286 286 286 286 286 286 286 285 286 286 286 286 286 287 287 287 287 287 287 288 288 288 288 288 288 288 289 289 289 289 289 289 289 289 290 290 290 290 290 290 290 291 291 291
285 285 285 285 285 285 285 285 285 285 285 285 286 286 286 286 286 287 287 287 287 287 287 287 287 286 286 286 285 285 285 285 285 285 285 285 285 285 285 285 285 285 285 285 285 285 285 285 285 285 285 285 286 286 286 286 287 287 287 287 287 287 287 288 288 288 288 288 288 288 289 289 289 289 289 289 289 289 290 290 290 290 290 290 290 291
285 285 285 285 285 285 285 285 285 285 285 286 286 286 286 287 287 287 287 287 287 287 287 286 286 285 285 285 284 284 284 284 284 284 284 285 285 285 285 285 285 285 285 285 285 285 285 285 285 285 285 285 285 286 286 286 286 286 287 287 287 287 287 287 287 288 288 288 288 288 288 288 288 289 289 289 289 289 289 289 290 290 290 290 290 290
286 286 285 285 285 285 285 286 286 286 286 286 287 287 287 287 287 287 287 287 286 286 285 285 284 284 284 284 284 284 284 284 284 284 284 284 285 285 285 285 284 285 285 285 285 285 285 285 285 285 285 285 285 285 286 286 286 286 286 287 287 287 287 287 287 287 287 288 288 288 288 288 288 288 288 289 289 289 289 289 289 289 290 290 290 290
286 286 286 286 286 286 286 286 286 287 287 287 288 288 287 287 287 286 285 285 285 284 284 284 284 284 284 284 283 283 283 283 284 284 284 284 284 284 284 284 284 284 285 285 285 285 285 285 285 285 285 285 285 285 285 286 286 286 286 286 286 286 287 287 287 287 287 287 287 287 288 288 288 288 288 288 288 289 289 289 289 289 289 289 289 290
286 286 286 286 286 286 287 287 287 287 287 287 287 287 286 285 285 285 284 284 284 284 284 284 283 283 283 283 283 283 283 283 283 283 283 284 284 284 284 284 284 284 284 284 284 284 284 285 285 285 285 285 285 285 285 285 285 286 286 286 286 286 286 287 287 287 287 287 287 287 287 287 287 288 288 288 288 288 288 288 288 289 289 289 289 289
285 286 286 286 286 286 287 287 287 286 286 286 285 285 285 284 284 284 284 284 284 283 283 283 283 283 283 283 283 283 283 283 283 283 283 283 284 284 284 284 284 284 284 284 284 284 284 284 284 284 285 284 284 285 285 285 285 285 286 286 286 286 286 286 286 286 286 287 287 287 287 287 287 287 287 287 287 287 288 288 288 288 288 288 288 288
285 286 286 286 286 286 286 286 285 285 284 284 284 284 284 284 284 284 283 283 283 283 283 283 282 283 283 282 283 283 283 283 283 283 283 283 284 284 284 284 284 284 284 284 284 284 284 284 284 284 284 284 284 284 285 285 285 285 285 285 285 286 286 286 286 286 286 286 286 286 286 286 286 286 287 287 287 287 287 287 287 287 288 288 288 288
286 286 286 286 285 285 284 284 283 283 282 283 283 283 283 283 283 283 283 283 282 282 282 282 282 282 282 283 283 283 283 283 283 283 283 283 283 284 284 284 284 284 284 284 284 284 284 284 284 284 284 284 284 284 284 284 284 285 285 285 285 285 285 285 285 285 285 285 286 286 286 286 286 286 286 286 287 287 287 287 287 287 287 287 288 288
286 286 285 285 284 283 283 282 282 281 281 282 282 282 282 282 282 282 282 282 282 282 282 282 282 282 282 283 283 283 283 283 283 283 283 283 283 283 283 283 283 283 283 283 284 284 284 284 284 284 284 284 284 284 284 284 284 284 284 284 284 284 284 285 285 285 285 285 285 285 286 286 286 286 286 286 286 287 287 287 287 287 287 287 287 288
285 284 284 283 283 282 282 281 281 281 281 281 281 281 281 281 281 281 282 282 282 282 282 282 282 282 282 283 283 283 283 283 283 283 283 283 283 283 283 283 283 283 283 283 283 284 284 284 284 284 284 284 284 284 284 284 284 284 284 284 284 284 284 284 285 285 285 285 285 285 285 286 286 286 286 286 286 286 286 287 287 287 287 287 287 287
284 283 282 282 282 281 281 281 281 281 281 281 281 281 281 281 281 281 281 282 282 282 282 282 282 282 282 282 282 282 282 282 282 282 282 282 283 283 283 283 283 283 283 283 283 283 283 283 284 284 283 283 283 284 284 284 284 284 284 284 284 284 284 284 284 285 285 285 285 285 285 285 285 286 286 286 286 286 286 286 287 287 287 287 287 287
282 282 281 281 281 281 280 280 280 280 281 281 281 281 281 281 281 281 281 281 282 282 282 282 282 282 282 282 282 282 282 282 282 282 282 282 282 282 282 282 282 282 282 283 283 283 283 283 283 283 283 283 284 284 284 284 284 284 284 284 284 284 284 284 284 284 284 285 285 285 285 285 285 285 285 285 286 286 286 286 286 286 286 287 287 287
281 281 281 280 280 280 280 280 280 280 280 281 281 281 281 281 281 281 281 281 281 281 281 282 282 282 282 282 281 281 281 281 281 282 282 282 282 282 282 282 282 282 282 282 282 283 283 283 283 283 283 283 284 284 284 284 284 284 284 284 284 284 284 284 284 284 284 284 284 284 285 285 285 285 285 285 285 285 285 286 286 286 286 286 286 287
280 280 280 280 280 280 280 280 280 280 280 280 281 281 281 281 281 281 281 281 281 281 281 281 281 281 281 281 281 281 281 281 281 281 281 282 282 282 282 282 282 282 282 282 282 283 283 283 283 283 283 283 283 283 283 284 284 284 284 284 284 284 284 284 284 284 284 284 284 284 284 284 284 285 285 285 285 285 285 285 285 286 286 286 286 286
280 279 279 280 280 280 280 280 280 280 280 280 280 280 280 281 280 280 280 280 280 280 280 280 280 281 281 281 281 281 281 281 281 281 281 281 281 281 282 282 282 282 282 282 282 283 283 283 283 283 283 283 283 283 283 283 284 284 284 284 284 284 284 284 284 284 284 284 284 284 284 284 284 284 284 285 285 285 285 285 285 286 286 286 286 286
279 279 279 280 280 280 280 280 280 280 280 280 280 280 280 280 280 280 280 280 280 280 280 280 280 280 280 280 281 281 281 281 281 281 281 281 281 281 281 282 282 282 282 282 282 282 283 283 283 283 283 283 283 283 283 283 283 284 284 284 284 284 284 284 284 284 284 284 284 284 284 284 284 284 284 285 285 285 285 285 285 285 286 286 286 286
279 279 279 280 280 280 280 280 280 280 280 280 280 280 280 279 279 280 280 280 280 280 280 280 280 280 280 280 280 281 281 281 281 281 281 281 281 281 281 281 282 282 282 282 282 282 282 283 283 283 283 283 283 283 283 283 283 283 283 284 284 284 284 284 284 284 284 284 284 284 284 284 284 285 285 285 285 285 285 285 285 285 285 285 285 286
279 279 279 280 280 280 280 280 280 280 279 279 279 279 279 279 279 279 279 280 280 280 280 280 280 280 280 280 280 280 281 281 281 281 281 281 281 281 281 281 282 282 282 282 282 282 282 282 283 283 283 283 283 283 283 283 283 283 283 284 284 284 284 284 284 284 284 284 284 284 284 284 284 284 284 284 284 284 284 284 284 285 285 285 285 285
279 279 279 280 280 280 279 279 279 279 279 279 279 279 279 279 279 279 279 279 280 280 280 280 280 280 280 280 280 280 281 281 281 281 281 281 281 281 281 281 281 282 282 282 282 282 282 282 282 283 283 283 283 283 283 283 283 283 284 284 284 284 284 284 284 284 284 284 284 284 284 284 284 284 284 284 284 284 284 284 284 284 284 285 285 285
279 279 279 279 279 279 279 279 279 279 279 279 279 279 279 279 279 279 279 279 279 279 280 280 280 280 280 280 280 280 280 281 281 281 281 281 281 281 281 281 281 281 282 282 282 282 282 282 282 283 283 283 283 283 283 283 283 284 284 284 284 284 284 284 284 284 284 284 284 284 283 284 284 284 284 284 284 284 284 284 284 284 284 284 284 285
279 279 279 279 278 278 278 278 278 278 278 279 278 279 278 279 279 279 279 279 279 279 280 280 280 280 280 280 280 280 281 281 281 281 281 281 281 281 281 281 281 282 282 282 282 282 282 282 283 283 283 283 283 283 283 283 283 284 284 284 284 284 284 284 283 283 283 283 283 283 283 283 283 283 283 284 284 284 284 284 284 284 285 285 285 285
278 278 278 278 278 278 278 278 278 278 278 278 278 278 278 278 279 279 279 279 279 279 279 280 280 280 280 280 280 280 281 281 281 281 281 281 281 281 281 282 282 282 282 282 282 282 282 283 283 283 283 283 283 283 283 284 284 284 284 283 283 283 283 283 283 283 283 283 283 283 283 283 283 283 283 283 283 284 284 284 284 284 285 285 285 285
278 278 278 278 278 278 278 278 278 278 277 277 278 278 278 278 278 279 279 279 279 279 279 279 279 280 280 280 280 281 281 281 281 281 281 281 282 282 282 282 282 282 282 282 282 282 283 283 283 283 283 283 283 283 283 283 283 283 283 283 283 283 283 283 283 283 283 282 283 283 283 283 283 283 283 283 283 283 284 284 284 284 284 285 285 285
278 278 278 278 278 278 277 277 277 277 277 277 278 278 278 278 278 278 278 279 279 279 279 279 280 280 280 280 281 281 281 281 281 281 281 282 282 282 282 282 282 282 282 282 282 283 283 283 283 283 283 283 283 283 283 283 283 283 283 282 282 282 282 282 282 282 282 282 282 282 282 282 282 283 283 283 283 283 283 283 284 284 284 284 285 285
278 278 278 277 277 277 277 277 277 277 277 277 277 278 278 278 278 278 278 278 279 279 279 279 280 280 280 280 280 281 281 281 281 281 282 282 282 282 282 282 282 282 282 283 283 283 283 283 283 283 283 283 283 283 282 282 282 282 282 282 282 282 282 282 282 282 282 282 282 282 282 282 282 282 283 283 283 283 283 283 284 284 284 284 284 285
277 277 277 277 277 276 276 276 277 277 277 277 277 277 278 278 278 278 278 279 279 279 279 279 280 280 280 280 280 281 281 281 281 281 282 282 282 282 282 282 283 283 283 283 283 283 283 283 283 283 282 282 282 282 282 282 282 282 282 282 282 282 282 282 282 282 282 282 282 282 282 282 282 282 283 283 283 283 283 283 284 284 284 284 284 284
277 277 276 276 276 276 276 276 277 277 277 277 277 277 277 278 278 278 278 279 279 279 279 279 280 280 280 280 280 281 281 281 281 281 282 282 282 282 282 283 283 283 283 283 282 282 282 282 282 282 282 282 282 282 281 281 281 281 281 281 281 281 282 282 282 282 282 282 282 282 282 282 282 282 283 283 283 283 283 283 284 284 284 284 285 285
276 276 276 276 276 276 276 276 277 277 277 277 277 277 278 278 278 278 278 279 279 279 279 279 279 280 280 280 280 281 281 281 281 282 282 282 282 282 282 283 283 283 282 282 282 282 282 281 281 281 281 281 281 281 281 281 281 281 281 281 281 282 282 282 282 282 282 282 282 282 282 282 282 282 283 283 283 283 283 284 284 284 284 284 285 285
276 276 276 276 276 276 276 276 277 277 277 277 277 277 278 278 278 278 278 278 279 279 279 279 280 280 280 280 280 281 281 281 282 282 282 282 282 282 283 283 282 282 282 282 282 281 281 281 281 281 281 281 281 281 281 281 281 281 281 282 282 282 282 282 282 282 282 282 282 282 282 282 283 283 283 283 283 284 284 284 284 284 284 285 285 285
275 276 276 276 276 276 276 276 277 277 277 277 277 278 278 278 278 278 278 278 279 279 279 279 280 280 280 280 281 281 281 281 282 282 282 282 282 282 282 282 282 282 282 281 281 281 281 281 281 281 281 281 281 281 282 282 282 282 282 282 282 282 282 282 282 282 282 282 283 283 283 283 283 283 283 283 284 284 284 284 284 285 285 285 285 285
Wind_Speed
16 18 19 19 19 20 19 19 20 22 24 24 24 25 24 24 24 24 24 23 23 24 24 25 25 25 26 26 25 24 24 24 23 24 24 24 24 24 25 25 25 25 25 26 26 26 26 27 27 27 27 27 28 28 28 28 28 28 27 27 27 27 27 27 27 27 27 27 27 26 26 26 26 26 25 25 25 25 25 24 24 24 24 24 24 24
16 17 17 17 18 18 19 19 20 21 23 24 25 24 24 25 25 25 24 23 23 23 24 24 25 25 25 25 25 24 24 23 23 24 24 24 24 25 25 25 26 26 26 26 27 27 27 27 27 27 28 28 28 28 28 28 28 28 28 28 28 28 28 28 28 28 28 28 27 27 27 27 27 26 26 26 26 25 25 25 25 25 25 24 24 24
16 16 16 16 17 17 18 20 20 21 22 23 24 24 24 25 25 24 24 23 23 23 23 24 24 25 25 25 25 24 24 23 23 24 24 25 25 25 26 26 26 26 27 27 27 27 27 27 27 28 28 28 28 28 28 28 28 28 28 28 28 29 29 29 29 28 28 28 28 28 28 27 27 27 27 26 26 26 26 25 25 25 25 25 25 25
15 16 17 17 17 17 18 19 20 21 22 22 23 23 23 23 23 23 23 24 24 24 24 23 23 24 24 24 24 24 23 23 23 24 24 25 25 26 26 26 26 26 27 27 27 27 27 27 28 28 28 28 28 29 29 29 29 29 29 29 29 29 29 29 29 29 29 29 28 28 28 28 28 28 27 27 27 27 26 26 26 26 26 25 25 25
14 15 16 17 17 17 18 19 20 21 22 22 22 22 22 22 22 23 23 23 24 24 24 23 23 23 23 24 24 24 23 23 24 24 25 25 26 26 26 26 26 26 26 26 27 27 27 28 28 28 28 29 29 29 29 29 29 29 29 29 29 29 29 29 29 29 29 29 29 29 29 29 28 28 28 28 28 27 27 27 27 26 26 26 26 26
15 15 15 16 17 17 18 19 20 20 21 21 21 21 21 21 22 22 23 23 23 23 23 23 22 22 22 23 23 23 23 23 24 24 25 25 25 25 25 25 25 26 26 26 27 27 27 28 28 28 29 29 29 29 29 29 30 30 30 30 30 30 30 30 30 30 30 30 29 29 29 29 29 29 29 28 28 28 28 27 27 27 27 27 27 27
15 15 15 16 17 18 18 19 19 19 20 20 20 21 21 21 21 21 22 22 23 23 22 22 22 22 22 22 23 23 24 24 24 24 24 24 24 24 25 25 25 25 26 26 27 27 27 28 28 29 29 29 29 30 30 30 30 30 30 30 30 30 30 30 30 30 30 30 30 30 30 30 29 29 29 29 29 29 28 28 28 28 28 27 27 27
16 16 16 17 17 18 18 18 18 18 19 20 20 21 22 21 21 21 21 21 21 21 21 21 21 21 21 22 22 23 24 24 25 25 25 24 24 24 24 24 25 25 26 26 26 27 28 28 29 29 29 29 30 30 30 30 30 30 30 30 30 30 30 31 30 30 30 30 30 30 30 30 30 30 30 30 29 29 29 29 28 28 28 28 28 28
17 17 17 16 17 17 18 18 17 17 18 19 20 21 21 22 22 21 20 19 19 19 19 20 21 22 22 22 22 23 23 24 24 24 24 24 24 24 25 25 25 25 26 26 27 27 28 28 29 29 30 30 30 30 30 31 31 31 31 31 31 31 31 31 31 31 31 31 31 31 31 31 31 31 30 30 30 30 29 29 29 29 29 28 28 28
16 17 17 16 16 16 17 18 18 18 18 19 19 19 19 20 21 21 21 20 19 18 18 20 21 22 23 23 23 23 24 24 24 23 23 23 23 24 24 25 25 25 26 26 27 28 28 29 29 29 30 30 30 30 31 31 31 31 31 31 31 31 31 31 31 31 31 31 31 31 31 31 31 31 31 31 31 30 30 30 30 29 29 29 29 29
15 15 16 16 16 16 16 17 18 19 19 19 19 18 17 16 17 19 20 21 21 20 19 19 20 21 23 24 24 24 24 24 24 24 23 23 23 24 24 25 25 26 27 27 28 28 28 29 29 29 30 30 30 30 30 30 30 30 30 30 31 31 31 31 31 31 32 32 32 32 32 32 32 32 32 31 31 31 31 31 30 30 30 30 29 29
14 15 15 15 16 16 16 17 18 18 18 17 16 16 15 15 15 17 19 20 21 22 22 21 21 21 22 23 24 25 24 24 24 24 24 24 24 24 25 26 26 27 27 28 28 28 28 29 29 29 30 30 30 30 30 30 30 30 31 31 31 31 32 32 32 32 32 32 32 32 32 32 32 32 32 32 32 32 32 32 31 31 31 31 30 30
14 14 15 15 16 16 16 16 17 16 16 15 14 14 15 16 17 17 18 20 21 22 22 23 23 23 22 23 23 23 24 24 24 23 24 23 24 24 25 27 27 28 28 28 29 29 29 29 29 29 29 29 29 30 30 30 31 31 31 32 32 32 32 32 32 32 32 32 32 32 32 32 32 32 33 33 33 33 33 32 32 32 32 32 31 31
14 15 15 15 15 15 15 15 15 15 14 14 14 15 16 18 18 19 19 20 21 21 22 23 23 23 23 22 21 21 22 23 23 23 23 23 24 24 26 27 28 28 28 28 29 29 29 29 29 29 29 29 30 30 31 32 32 32 32 32 32 32 32 32 32 32 32 32 32 33 33 33 33 33 33 33 33 33 33 33 33 33 33 32 32 32
14 14 14 13 14 14 15 15 15 15 15 15 16 17 18 19 19 19 18 19 20 21 22 22 23 23 21 19 18 19 20 21 22 23 24 25 25 25 25 27 28 29 28 28 29 29 29 28 28 29 30 30 31 31 31 31 31 31 31 31 31 31 32 32 32 32 33 33 33 33 34 34 34 34 34 34 34 34 34 33 33 33 33 33 33 33
14 14 13 13 14 14 15 15 15 15 16 17 17 18 18 18 18 17 17 18 20 21 21 21 21 21 21 19 17 17 19 21 23 24 26 27 27 26 25 27 28 29 29 28 28 29 29 28 29 29 30 30 30 30 30 29 30 30 31 31 32 32 33 33 33 34 34 34 35 35 35 35 35 35 35 35 34 34 34 34 34 33 33 33 33 33
14 14 14 14 14 15 16 16 16 16 17 17 17 17 17 17 17 18 18 19 20 20 19 18 15 13 15 20 20 17 18 21 24 25 27 29 29 27 25 26 28 29 29 28 28 28 28 28 28 28 29 29 29 28 28 29 30 31 32 33 33 34 34 34 35 35 35 35 35 35 36 36 36 36 35 35 35 35 34 34 34 34 34 34 34 34
14 13 13 14 15 16 17 17 17 17 17 17 17 17 17 17 18 19 19 19 19 19 18 18 15 12 11 16 20 21 21 22 24 27 28 30 30 28 26 26 27 28 29 29 28 28 28 28 28 28 28 29 28 29 30 31 32 32 33 34 34 34 35 35 35 36 36 36 36 36 36 36 36 36 36 36 36 36 35 35 35 35 35 35 35 35
14 14 14 14 15 16 17 17 16 16 16 16 17 18 19 19 19 19 19 19 19 19 19 18 18 18 18 20 23 25 23 23 25 27 28 29 30 29 26 25 26 27 28 28 28 27 27 28 28 29 29 29 30 30 31 32 32 33 33 34 34 35 35 35 36 36 36 36 37 37 37 37 37 37 37 37 37 36 36 36 36 36 36 36 36 36
16 16 16 15 16 17 17 17 16 16 16 17 18 19 20 21 21 20 20 20 19 19 19 19 20 20 22 24 26 26 25 24 25 27 28 29 29 29 26 24 25 27 28 28 27 27 27 28 29 30 30 30 30 30 31 31 32 33 33 34 34 35 35 36 36 36 37 37 37 37 37 37 37 37 37 37 37 37 37 36 36 36 36 36 36 36
17 17 17 16 17 17 18 18 18 17 18 19 20 20 20 21 21 20 20 20 20 21 20 20 21 22 23 25 27 27 26 25 24 25 26 27 28 27 25 23 24 26 28 28 28 28 28 29 30 30 30 30 30 30 31 32 32 33 33 34 34 35 35 36 36 37 37 37 38 38 38 38 38 38 38 38 37 37 37 37 36 36 36 36 36 36
18 19 18 18 18 18 19 20 20 20 20 21 21 21 20 20 20 21 21 21 21 21 21 22 23 25 26 27 28 28 27 25 24 23 23 23 26 27 25 23 23 26 28 29 29 29 29 29 30 30 30 30 30 31 31 32 32 33 33 34 35 35 36 36 36 37 37 37 38 38 38 38 38 38 38 38 38 38 37 37 37 37 37 37 37 37
19 20 20 20 20 20 21 22 22 22 22 22 22 21 21 21 21 21 22 21 21 22 23 25 26 27 28 27 27 26 25 22 21 22 22 18 22 26 25 24 24 26 28 29 29 29 29 30 30 30 30 30 30 31 31 32 33 33 34 34 35 35 35 36 36 37 37 37 38 38 38 38 38 38 38 38 38 38 37 37 37 37 37 37 37 37
19 20 21 20 20 21 21 22 23 23 23 23 22 23 23 23 22 22 22 23 23 23 24 25 25 26 26 25 24 23 22 21 20 20 20 20 23 26 26 25 25 27 29 29 29 29 30 30 30 30 30 30 30 31 31 32 32 33 33 34 34 35 35 36 36 36 37 37 37 38 38 38 38 38 38 38 37 37 37 37 37 37 37 37 37 37
19 20 20 20 20 21 21 22 22 23 23 23 23 23 23 23 23 24 24 25 25 24 23 23 23 22 22 22 21 21 21 20 19 19 20 21 24 27 27 25 25 27 29 30 30 29 30 31 31 31 31 31 31 31 31 32 32 33 33 34 34 34 35 35 35 36 36 36 37 37 37 37 37 37 37 37 37 37 37 37 37 37 37 37 37 37
19 20 20 21 21 22 22 23 23 23 23 23 23 23 24 24 24 23 23 22 21 20 20 19 19 19 20 20 20 21 21 19 19 19 20 21 23 26 27 25 24 26 29 31 31 30 31 32 32 32 31 31 31 31 31 31 31 32 32 32 33 33 33 34 34 35 35 36 36 37 37 37 37 38 38 38 38 38 38 37 37 37 37 38 38 38
20 21 21 22 21 21 21 21 22 22 23 23 23 23 23 23 22 21 20 19 18 17 17 16 15 16 19 19 19 20 21 20 20 19 20 21 23 24 25 25 25 26 29 31 32 32 31 32 32 32 31 31 31 30 30 29 29 29 30 30 31 31 32 33 34 35 35 36 37 37 38 38 38 38 38 38 38 38 38 38 38 38 38 38 38 38
20 20 20 19 19 19 20 20 21 22 23 23 22 21 20 20 19 18 18 18 17 17 17 15 13 12 14 17 19 22 22 21 20 20 20 20 20 22 25 25 26 26 29 31 33 33 32 31 31 30 30 29 29 28 28 27 27 28 29 30 31 32 33 34 35 36 37 37 38 38 38 38 39 39 39 39 39 39 39 38 38 38 38 38 37 36
18 18 17 18 18 19 20 22 23 24 23 22 21 19 18 17 17 17 18 18 18 17 17 17 16 15 16 19 22 23 22 21 19 18 18 18 19 22 25 26 26 26 27 29 32 33 32 30 28 27 27 27 28 27 27 27 28 29 30 31 32 33 34 34 35 36 37 37 38 38 38 38 38 38 39 38 38 38 38 38 38 38 37 36 35 35
16 17 18 19 21 22 24 25 26 25 23 20 19 18 17 17 17 18 19 19 18 18 18 18 18 18 18 19 18 17 18 18 17 16 17 18 19 22 25 26 25 25 24 24 21 21 25 29 28 26 26 27 28 28 28 29 30 30 31 31 32 32 33 33 34 35 36 36 37 37 37 38 38 38 38 38 38 38 38 37 37 36 35 34 34 33
17 19 21 23 24 25 26 26 25 24 22 20 19 18 18 18 18 18 18 18 18 18 18 19 19 19 19 15 10 7 9 18 19 17 18 19 20 23 25 25 25 26 24 20 11 7 15 22 28 31 28 28 28 28 28 29 29 30 30 30 30 31 31 32 32 33 34 35 35 36 36 37 37 37 37 37 37 37 37 37 36 35 34 34 33 32
21 23 24 25 26 26 25 24 23 22 21 21 20 20 19 18 17 17 18 18 18 19 19 19 20 20 20 17 12 9 13 21 23 21 20 20 22 24 25 25 26 27 26 22 17 13 11 11 23 34 32 31 30 29 29 29 29 29 29 29 30 31 31 31 31 32 33 33 34 34 35 35 36 36 36 37 37 37 37 37 36 35 34 33 33 32
24 25 26 26 26 25 24 22 21 21 21 21 20 20 19 18 17 18 18 18 18 19 19 20 20 20 21 21 20 20 23 25 24 23 21 21 22 24 25 26 26 27 27 25 25 23 18 17 24 32 34 33 32 31 30 29 29 29 29 30 31 32 32 31 31 31 32 32 33 33 34 34 35 35 36 36 36 36 36 36 36 35 35 34 33 32
25 26 26 25 24 23 22 21 20 20 20 20 20 19 19 18 18 18 18 18 19 19 20 20 20 21 21 22 22 24 26 26 24 23 22 22 22 23 26 26 27 27 27 27 27 27 25 27 29 29 30 33 34 32 31 30 29 29 29 30 30 31 31 31 30 30 31 32 32 32 33 33 33 34 34 35 35 35 35 36 36 36 35 35 34 33
25 25 24 23 22 21 20 20 20 20 20 20 19 19 19 19 19 19 20 19 20 20 20 21 22 22 22 22 22 24 26 27 26 24 23 23 24 25 26 26 27 27 26 27 27 26 24 28 30 30 28 31 33 33 32 30 29 29 29 29 30 30 30 30 30 30 31 32 32 32 33 32 33 33 33 33 33 34 35 35 35 36 36 36 36 34
22 22 21 20 19 19 19 19 19 19 19 19 19 19 19 19 20 20 21 21 22 22 23 23 24 24 24 25 25 26 29 30 30 28 27 26 26 27 27 27 28 28 26 27 27 25 24 26 30 32 30 26 26 29 33 32 30 29 30 30 31 31 31 31 31 31 32 33 33 33 33 33 33 33 33 33 34 34 35 36 36 37 37 37 38 37
19 19 18 18 18 18 18 18 18 19 19 19 19 20 20 21 21 22 23 24 25 25 25 26 26 26 27 27 28 30 31 32 32 32 31 30 30 29 29 29 30 30 29 27 27 26 26 25 26 28 28 25 24 26 31 33 33 31 30 31 32 32 32 32 31 31 32 33 33 34 34 33 33 33 34 34 34 34 35 36 36 36 37 37 38 39
17 17 17 17 17 17 17 18 18 18 18 19 20 21 22 23 23 24 25 26 27 27 27 27 27 28 28 28 30 32 33 35 35 35 35 34 33 32 32 31 31 32 31 30 30 29 27 21 18 16 16 23 29 32 34 34 33 33 33 34 33 32 32 32 32 31 31 31 32 32 33 32 32 32 33 33 33 32 33 33 34 34 35 36 37 38
15 16 16 16 16 16 16 17 18 19 20 20 21 22 23 23 24 25 25 25 26 26 26 27 27 28 29 30 31 32 33 34 35 36 36 36 35 34 33 32 32 33 33 32 32 32 30 25 19 15 12 20 29 34 36 35 34 34 35 36 35 34 32 31 30 30 30 30 31 31 31 32 32 32 33 33 33 32 32 32 32 32 32 32 34 35
14 15 15 15 15 16 17 18 19 20 21 22 22 22 22 22 22 23 23 23 23 24 25 26 27 27 28 29 30 30 31 32 34 34 35 35 35 34 33 33 33 33 33 32 32 32 31 29 27 27 28 27 28 31 34 35 35 35 34 32 31 31 32 31 30 30 31 31 31 32 32 32 32 32 32 33 33 33 33 32 32 31 31 30 31 31
14 14 15 15 16 16 17 18 19 20 21 21 21 21 21 21 21 22 22 22 22 23 24 25 25 26 27 27 28 29 30 31 32 32 33 35 35 35 34 34 34 34 34 32 32 32 32 30 30 30 32 32 32 32 34 36 36 36 34 30 30 32 35 34 33 32 32 32 32 31 31 32 32 32 32 32 32 32 32 32 32 32 32 31 31 30
13 14 15 16 17 17 18 19 19 19 19 19 20 20 20 20 21 22 22 22 23 23 24 24 24 25 27 28 28 28 28 29 30 31 32 33 34 35 35 35 34 34 33 33 33 33 32 32 32 33 33 33 32 31 33 36 37 35 33 31 33 35 35 34 32 30 29 29 30 29 29 29 30 30 30 31 31 32 32 32 32 32 32 31 31 30
14 15 16 17 17 18 19 19 19 18 18 18 19 19 20 20 21 21 22 23 23 24 24 24 24 25 27 28 28 28 28 28 28 29 30 31 32 33 34 35 35 34 34 33 33 32 33 32 32 33 33 34 33 31 30 34 36 35 34 33 33 31 28 31 32 31 29 29 29 29 28 29 29 30 30 30 30 30 31 32 33 33 33 31 30 30
15 16 16 17 17 17 17 17 17 18 18 19 19 20 20 21 21 21 22 23 24 24 24 24 25 25 26 26 28 28 28 28 27 27 28 29 30 32 33 34 34 34 33 33 32 31 32 32 32 33 34 33 32 32 31 33 34 35 35 35 33 30 27 29 32 33 32 31 30 30 29 29 29 29 31 31 31 31 30 31 32 32 32 32 31 31
15 15 16 16 16 16 17 17 17 18 18 18 19 20 20 21 21 21 22 23 24 24 24 24 24 24 24 25 27 28 29 29 28 28 28 28 29 29 30 31 32 32 32 32 31 30 29 30 32 33 33 32 32 32 33 34 35 35 36 36 35 34 35 36 35 33 32 32 32 31 31 30 29 28 28 29 29 30 31 31 31 31 32 31 32 32
14 14 15 16 16 16 17 17 18 18 18 19 19 20 21 21 22 22 22 23 23 24 24 24 23 22 22 24 26 27 28 29 30 30 29 29 29 29 30 30 31 31 31 31 31 30 30 31 31 33 34 34 33 34 35 34 34 34 35 35 35 34 34 34 33 32 32 31 31 31 31 30 29 27 27 27 29 30 30 30 30 31 31 31 31 32
14 14 15 16 16 16 17 17 17 17 18 19 19 20 21 21 22 22 22 22 23 23 24 23 23 22 23 25 26 26 27 29 30 31 31 30 29 29 30 30 29 29 29 30 30 30 30 31 32 32 33 32 31 32 35 35 34 33 33 34 33 32 32 32 32 32 31 31 31 31 31 29 28 27 27 28 28 29 29 30 30 30 31 31 31 31
13 14 15 15 16 16 17 17 17 17 18 19 20 21 21 21 22 22 22 23 23 23 23 23 23 23 24 25 26 27 27 28 30 31 32 31 31 30 29 28 28 28 28 28 28 29 30 31 32 33 33 31 29 30 33 35 34 33 32 33 32 31 31 32 33 33 31 31 31 32 31 29 27 27 27 27 27 28 29 29 30 30 30 30 30 30
13 14 15 15 16 16 16 17 17 18 18 19 20 21 21 21 21 21 22 22 23 23 23 23 23 24 24 25 27 28 28 29 30 31 31 31 30 29 29 29 29 28 28 28 30 30 31 31 32 32 32 31 31 31 33 34 34 33 32 32 31 30 30 31 33 32 30 30 31 31 30 28 28 29 28 26 25 26 28 29 30 30 30 30 30 30
13 14 14 15 15 16 17 17 18 18 19 20 20 21 22 22 22 21 22 22 22 22 22 23 23 24 24 26 27 28 28 29 29 30 31 30 29 29 29 29 30 30 29 30 31 30 29 29 29 29 28 28 29 30 31 32 33 32 31 31 30 29 29 31 32 32 31 30 30 30 30 28 28 29 27 25 25 26 27 28 29 30 30 30 30 30
14 14 14 15 15 16 17 17 18 18 19 20 20 21 21 22 22 22 22 22 22 23 23 23 24 24 25 26 27 28 28 28 28 29 31 30 29 27 26 27 29 29 28 26 24 23 21 20 21 24 27 27 27 27 29 30 31 30 29 29 29 29 29 30 31 32 31 31 30 29 28 28 27 27 26 25 23 22 23 25 27 29 30 30 29 29
Wind_Direction
304 307 312 316 317 316 316 319 321 322 321 322 323 325 326 325 325 325 326 326 327 327 326 325 325 324 325 325 324 322 321 320 318 316 314 313 312 312 311 311 310 310 309 308 308 308 307 307 306 306 305 305 305 305 304 304 304 304 304 304 304 304 303 302 302 302 302 301 301 300 300 299 299 298 298 298 298 297 296 294 293 292 292 291 290 289
306 309 311 315 316 315 314 316 319 320 320 320 321 322 324 324 323 323 323 324 324 323 322 321 321 321 321 322 322 320 318 316 314 313 312 311 311 310 310 309 309 308 308 307 307 307 306 306 305 305 305 304 304 304 304 304 304 303 303 303 303 303 302 302 301 301 301 300 300 300 299 299 298 298 297 297 296 295 295 294 293 292 291 290 289 289
309 311 311 314 315 314 313 315 317 318 318 317 318 320 322 321 321 320 321 321 321 320 319 319 319 319 319 319 319 318 316 314 312 311 310 310 309 309 309 308 308 307 307 306 306 306 305 305 305 304 304 304 303 303 303 303 303 303 302 302 302 301 301 301 301 300 300 299 299 298 298 298 297 296 296 296 295 294 294 293 292 292 291 290 289 288
308 310 311 313 314 313 311 313 315 316 316 316 317 319 320 319 318 317 318 318 318 317 317 317 317 317 316 316 316 315 313 311 310 309 309 308 308 308 307 307 306 306 306 305 305 305 304 304 304 303 303 303 303 302 302 302 302 301 301 301 301 300 300 300 299 299 299 298 298 297 297 296 296 295 295 294 294 293 293 292 292 291 291 290 288 287
306 307 310 312 313 312 311 312 313 314 315 315 317 318 318 317 316 316 316 316 316 316 316 316 316 315 314 313 313 313 311 310 308 308 307 307 307 306 306 305 305 305 305 304 304 304 303 303 303 302 302 302 302 301 301 301 301 300 300 300 300 299 299 299 298 298 298 297 297 296 296 295 294 294 294 293 293 292 292 292 291 291 290 289 288 287
303 305 308 310 310 309 310 311 312 314 315 316 316 316 316 316 315 315 315 315 315 315 315 314 314 314 313 312 312 311 310 309 307 307 306 306 305 305 305 304 304 303 303 303 302 302 302 302 301 301 301 301 300 300 300 300 300 299 299 299 298 298 298 297 297 297 296 296 295 295 295 294 293 293 293 292 292 291 291 291 290 290 289 289 288 287
302 304 307 307 307 307 308 309 311 313 315 315 315 316 315 315 314 313 313 314 314 314 314 313 313 313 312 312 312 311 310 309 308 307 306 306 305 304 304 303 303 302 302 302 301 301 301 300 300 300 300 300 299 299 299 299 298 298 298 298 297 297 297 296 296 296 295 295 294 294 294 293 293 292 292 291 291 291 290 290 289 289 289 288 288 287
301 304 306 307 307 307 308 308 310 312 314 314 314 315 315 314 313 313 312 313 314 314 314 314 313 312 312 312 312 311 310 309 308 308 307 306 305 304 303 303 302 301 301 300 300 300 300 299 299 299 299 299 298 298 298 297 297 297 297 296 296 296 295 295 295 294 294 294 293 293 293 292 292 292 291 291 290 290 290 289 289 288 288 288 287 286
299 303 304 305 306 308 308 308 308 311 313 312 312 312 312 313 313 313 314 314 314 314 315 314 314 313 312 312 312 311 310 308 307 306 306 305 304 304 303 302 302 301 300 300 299 299 299 298 298 298 298 297 297 297 296 296 296 296 295 295 295 294 294 294 294 293 293 293 292 292 292 292 291 291 291 290 290 289 289 289 288 288 287 287 286 286
296 299 301 303 304 305 306 306 307 310 311 310 309 308 308 309 312 314 316 315 315 316 315 315 314 313 313 313 312 311 309 307 305 304 303 303 302 301 302 301 300 300 299 299 299 298 298 297 297 296 296 296 295 295 295 295 294 294 294 293 293 293 293 293 292 292 292 292 291 291 291 291 291 290 290 290 289 289 288 288 287 287 287 286 286 285
297 299 301 302 304 304 303 303 305 308 311 310 308 307 307 308 312 315 317 316 316 317 317 315 314 313 313 313 312 311 309 307 305 304 303 303 302 302 302 301 300 299 299 298 298 297 297 296 296 295 295 294 294 294 293 293 293 293 292 292 292 292 292 291 291 291 290 290 290 290 290 290 290 289 289 289 288 288 287 287 287 286 286 285 285 284
299 301 302 303 304 304 304 304 306 309 312 312 312 312 313 315 317 317 315 314 315 316 316 314 312 311 310 310 309 309 308 306 305 304 305 305 305 304 304 302 301 301 300 299 298 297 296 296 295 295 294 294 293 293 292 292 292 292 291 291 291 290 290 290 289 289 289 289 289 289 289 289 288 288 288 288 287 287 286 286 286 285 285 284 284 283
300 301 301 301 302 304 305 306 309 311 314 315 315 316 317 318 319 317 313 310 310 312 313 312 311 309 308 307 307 307 306 305 304 304 305 305 305 306 305 304 302 302 301 300 299 297 297 296 296 295 294 292 292 292 292 292 291 291 291 291 290 290 289 289 288 288 288 288 288 288 288 288 287 287 287 286 286 286 286 285 285 285 284 284 283 282
300 301 301 300 301 303 304 307 308 310 312 314 315 314 314 315 317 316 313 309 308 310 311 310 308 308 308 308 307 306 306 305 305 306 305 305 305 305 305 304 302 301 301 299 298 297 297 296 295 294 293 292 292 292 292 292 292 291 291 290 289 289 289 289 288 288 288 288 288 288 288 287 287 286 286 286 285 285 285 284 284 284 283 283 282 282
299 300 299 299 299 301 304 307 308 309 310 312 313 313 313 314 314 314 312 309 309 311 312 310 309 308 308 308 309 310 310 308 308 307 306 305 304 305 305 303 301 300 299 298 297 296 296 295 294 293 293 293 292 292 292 292 292 291 290 290 289 289 289 289 289 289 289 288 288 288 287 287 286 286 286 285 285 284 284 283 283 283 283 282 282 281
296 296 295 296 298 300 303 307 309 309 310 311 312 313 313 312 312 312 311 309 310 312 313 313 312 311 310 310 311 313 314 312 310 308 306 304 304 304 304 303 301 299 298 296 295 295 296 295 294 293 293 292 292 292 291 290 290 290 290 290 290 290 290 290 289 289 288 288 288 287 287 286 286 285 285 285 284 284 283 283 283 282 282 282 281 281
292 292 292 295 298 301 304 306 307 307 308 309 309 309 308 308 308 309 308 308 309 310 311 311 312 312 312 312 312 314 317 315 311 308 306 303 302 303 303 301 299 297 297 295 294 294 294 294 293 292 292 291 291 291 290 290 290 290 290 290 290 290 290 289 289 288 288 287 287 287 286 286 285 285 285 284 284 283 283 283 282 282 282 281 281 280
291 293 295 298 300 301 303 304 304 304 306 306 306 307 306 305 306 306 305 305 305 306 306 307 306 305 306 308 309 312 316 315 312 308 305 302 301 301 302 300 296 294 294 293 293 293 293 292 291 291 291 290 290 290 290 290 289 289 289 289 289 289 288 288 288 287 287 287 286 286 286 286 285 285 284 284 284 283 283 283 282 282 281 281 280 280
293 295 298 300 300 300 300 300 301 302 303 304 305 306 306 305 305 304 302 301 300 300 301 301 301 300 299 299 302 307 313 314 311 306 303 300 299 300 301 299 295 293 292 291 292 292 292 291 290 290 289 289 289 289 289 289 289 288 288 288 288 288 287 287 287 287 286 286 286 286 286 285 285 285 284 284 283 283 283 282 282 281 281 280 280 279
294 294 295 297 298 298 297 296 296 298 300 301 303 304 303 303 303 301 299 299 297 296 297 297 297 297 298 298 300 305 310 312 309 304 300 297 297 298 300 298 295 293 291 291 292 293 293 292 291 290 290 289 289 289 289 288 288 288 288 287 287 287 286 286 286 286 286 286 285 285 285 285 285 284 284 283 283 283 282 282 281 281 280 280 279 279
293 292 290 292 293 292 292 292 293 296 297 299 299 298 297 298 298 298 298 298 298 297 297 296 295 296 298 299 300 303 307 308 306 301 298 296 295 296 298 298 295 293 292 293 293 294 294 292 291 291 290 290 289 289 288 288 288 288 287 287 286 286 285 285 285 285 285 285 285 285 285 284 284 284 283 283 283 282 282 282 281 280 280 279 279 278
286 286 287 287 286 284 286 289 291 293 295 294 293 291 291 292 293 294 297 299 299 299 298 297 296 297 298 297 297 299 302 301 298 295 296 295 294 296 299 300 298 295 294 294 295 296 295 293 292 291 291 290 289 289 288 288 287 287 286 286 286 285 285 285 284 284 284 284 284 284 284 284 284 283 283 283 282 282 282 281 281 280 280 279 279 278
279 281 285 286 284 282 283 286 289 291 292 290 286 284 285 287 288 291 296 300 301 301 300 298 297 296 295 294 295 296 298 297 293 291 291 291 292 296 300 303 301 297 295 295 297 297 296 294 293 292 292 291 290 289 288 288 287 287 286 286 285 285 284 284 284 284 284 284 284 283 283 283 283 283 283 282 282 282 281 281 280 280 279 279 278 278
281 282 284 285 284 283 284 285 288 291 292 291 290 290 292 293 294 296 299 301 301 302 301 300 298 296 295 295 295 295 296 296 294 291 289 288 290 295 300 303 302 298 295 296 297 298 298 296 294 293 293 291 290 289 288 288 287 286 286 285 285 284 284 284 284 283 283 283 283 283 283 283 283 282 282 282 282 281 281 281 280 280 279 279 278 278
285 284 283 283 285 285 286 287 289 292 294 296 298 300 303 303 303 302 301 300 300 299 299 298 296 296 296 298 297 296 297 297 295 291 288 288 291 294 298 300 300 297 297 298 299 300 299 297 295 295 294 292 291 290 289 288 287 286 285 285 284 284 284 283 283 283 283 283 283 283 283 283 283 282 282 282 282 282 281 281 281 280 280 279 279 278
285 284 283 284 285 287 288 290 292 294 296 299 302 304 306 306 305 303 301 299 299 299 299 297 295 295 297 298 297 297 298 298 296 291 288 288 291 294 297 300 300 298 298 300 301 301 299 297 297 296 295 293 292 290 288 287 286 285 285 284 284 284 284 284 283 283 283 283 283 283 283 283 283 283 282 282 282 282 282 282 281 281 280 280 280 279
285 284 285 286 287 288 290 292 294 296 298 299 300 302 303 304 303 301 298 298 300 301 300 298 297 297 298 297 296 296 299 299 297 292 289 288 289 292 296 301 302 302 301 301 301 300 299 297 296 296 295 294 292 290 289 288 287 286 286 285 285 285 285 284 284 284 284 283 283 283 283 283 283 282 282 282 282 282 281 281 281 281 281 281 280 280
287 286 287 287 289 290 293 296 297 298 299 299 299 300 301 301 299 297 295 298 301 301 297 295 294 296 297 296 296 297 298 297 295 294 293 290 289 291 297 302 304 304 303 302 301 300 298 296 295 295 294 294 293 292 291 290 289 289 288 287 286 286 285 285 284 284 283 283 283 282 282 282 282 281 281 281 281 280 280 280 280 280 280 280 279 278
291 289 289 289 290 293 295 296 297 297 298 298 298 299 299 297 294 292 293 297 299 297 293 291 291 292 294 296 297 297 297 295 295 298 301 298 293 293 298 302 304 304 305 305 304 302 299 296 295 295 295 295 295 295 294 293 292 290 289 287 286 285 284 283 283 282 282 282 282 282 281 281 281 280 280 280 280 279 279 279 279 279 279 278 277 276
294 294 293 292 293 294 296 297 298 299 299 298 298 297 296 292 289 288 290 293 293 291 289 289 290 292 294 297 299 298 296 295 299 306 310 305 299 297 301 303 303 304 306 307 307 304 301 299 299 298 298 298 297 296 295 294 292 290 289 287 285 284 283 282 282 281 281 281 281 281 280 280 280 280 279 279 279 278 278 278 278 278 277 276 275 274
297 298 297 297 297 299 300 301 302 302 301 299 298 297 295 291 288 287 288 289 288 286 286 288 290 291 294 297 298 297 295 297 302 309 311 305 298 297 302 302 302 302 304 304 305 304 303 303 302 302 301 299 297 295 293 293 292 290 289 287 286 285 284 283 282 282 281 281 280 280 280 279 279 279 279 278 278 277 277 277 276 276 275 274 273 272
299 299 300 300 302 303 304 304 304 303 302 301 300 298 296 293 291 289 289 288 286 285 286 287 289 290 291 289 286 283 287 294 299 305 307 302 298 297 299 300 300 301 301 298 293 291 297 300 302 302 302 300 297 295 293 293 292 291 289 287 287 286 285 285 284 282 282 281 280 280 279 279 279 278 278 277 277 276 276 275 275 274 273 272 272 271
300 300 301 303 304 305 305 305 304 303 301 301 300 299 297 295 293 291 290 288 287 287 287 288 289 290 290 288 284 283 285 289 295 300 303 300 297 296 298 298 298 299 300 296 292 288 285 288 295 299 300 299 297 296 295 294 293 291 289 288 287 287 286 286 284 283 282 282 281 280 280 279 279 278 277 277 276 276 275 274 273 272 271 270 270 270
301 302 303 305 306 306 306 304 303 301 301 300 299 299 298 296 295 293 292 290 288 287 286 287 288 290 291 290 288 286 286 288 292 297 300 298 295 294 296 296 297 298 298 297 295 292 288 288 291 296 298 298 297 296 295 295 293 291 289 287 287 286 287 286 284 283 282 282 281 281 280 279 278 277 277 276 275 274 274 273 272 271 269 268 268 268
304 304 305 306 306 305 303 302 301 300 300 299 299 298 298 297 296 295 294 292 290 288 286 285 284 285 286 287 288 288 288 289 292 295 296 294 293 292 294 293 294 295 295 294 294 294 292 290 291 293 295 297 297 296 295 295 294 292 289 287 286 286 286 285 284 283 283 282 281 280 280 279 278 277 276 275 274 273 273 272 271 270 268 267 266 266
305 304 304 304 303 302 300 300 300 300 300 299 299 299 298 298 297 296 294 293 291 289 287 284 283 281 280 280 281 282 285 289 292 293 293 291 290 290 290 290 290 291 291 291 291 291 290 291 292 292 293 294 295 296 296 296 295 293 290 289 288 287 286 284 284 283 283 282 280 279 279 278 277 276 275 275 274 274 273 272 271 270 268 267 265 264
304 301 300 300 299 299 298 298 299 300 300 301 300 300 299 299 297 296 295 293 292 290 289 286 284 281 278 276 276 277 280 285 288 289 288 286 285 285 285 285 286 287 286 286 287 287 287 290 292 292 292 291 292 295 297 298 297 294 291 290 290 288 286 285 283 282 281 280 279 278 278 277 277 276 276 276 275 275 274 272 271 270 269 268 266 265
300 297 296 297 297 297 297 297 298 299 300 301 301 300 300 299 298 297 296 295 293 292 290 288 286 284 282 279 277 278 279 282 283 284 284 283 282 281 282 281 282 283 282 281 282 283 284 287 289 290 291 291 291 292 294 297 296 294 292 291 290 288 286 285 283 281 279 278 277 277 277 276 276 276 276 276 276 275 274 272 271 269 268 267 267 265
296 294 294 295 296 297 297 298 298 299 300 300 300 300 300 299 298 297 296 296 294 292 290 288 286 285 285 284 283 282 281 282 282 283 283 282 280 278 278 279 280 280 279 278 278 279 280 281 282 283 286 291 292 293 293 293 293 293 293 293 291 288 286 285 283 282 280 279 278 278 277 277 276 276 276 276 275 274 272 271 270 268 267 266 266 265
295 293 293 294 296 296 297 297 298 299 300 300 301 301 300 300 299 299 298 297 296 294 292 291 289 287 286 286 285 284 283 283 283 283 283 282 279 277 276 277 278 278 279 277 277 277 277 277 277 278 281 285 288 290 292 291 291 292 293 293 291 289 288 287 285 283 282 280 279 278 278 277 276 275 274 273 272 271 270 270 268 267 265 263 263 263
293 293 294 295 296 297 296 297 298 299 300 301 302 302 301 301 302 302 301 299 298 297 297 296 294 292 290 288 287 286 285 285 285 284 283 283 281 278 275 275 276 276 278 277 277 277 277 276 276 278 280 282 284 285 287 289 290 290 291 290 289 289 290 289 287 285 283 281 279 278 277 276 275 274 272 271 270 269 268 267 266 265 264 262 260 259
293 294 295 296 297 297 298 299 300 301 302 302 302 301 301 301 302 303 303 302 301 301 301 300 299 298 297 295 293 291 289 288 287 286 285 285 283 281 277 275 274 275 276 277 278 278 277 276 276 278 280 282 284 285 287 288 289 289 289 288 289 291 291 289 287 285 283 281 279 278 276 275 274 273 272 270 269 268 267 265 264 264 263 261 258 256
293 294 295 296 297 299 300 301 303 303 304 303 301 300 300 300 301 302 302 302 301 301 302 301 301 300 299 298 298 297 295 293 291 289 288 287 285 283 280 278 276 275 276 278 279 279 278 276 276 277 279 281 282 283 285 288 290 290 288 288 289 290 291 289 288 287 284 282 280 278 277 275 274 273 272 271 269 268 267 266 265 265 263 261 258 256
293 294 296 298 299 301 302 303 304 304 303 302 300 300 300 301 301 301 301 300 300 300 300 301 302 301 300 299 299 300 300 299 296 293 291 290 288 286 284 281 279 277 275 276 278 279 281 280 279 280 281 282 282 283 284 287 289 289 289 288 287 286 284 285 287 288 286 283 281 278 276 275 274 273 273 271 270 268 267 266 265 264 263 260 258 257
292 294 297 300 302 303 304 303 303 303 303 301 300 300 301 302 302 301 299 299 299 300 300 301 303 303 301 301 301 302 303 302 300 298 296 294 292 289 287 285 283 281 278 277 276 276 278 281 283 285 285 284 283 282 284 286 287 288 288 287 286 284 282 283 284 284 284 283 281 279 277 276 275 274 272 270 269 267 267 265 264 263 261 259 257 256
295 298 300 302 303 303 303 303 303 303 302 301 300 300 302 302 301 300 299 298 299 300 300 301 301 300 300 301 303 304 304 303 303 302 301 299 297 294 293 290 288 285 283 280 278 277 276 279 282 285 288 287 285 283 283 284 285 286 286 287 286 285 284 283 281 281 280 280 280 279 278 277 275 273 271 270 269 269 266 264 262 260 260 258 256 254
299 301 302 303 303 303 302 303 303 302 301 300 300 300 301 302 301 300 300 299 299 300 301 302 300 298 297 299 301 302 303 303 303 303 304 302 300 298 298 296 293 290 288 285 283 281 279 278 279 281 284 286 285 284 283 283 282 282 284 285 285 284 283 282 281 280 279 278 277 277 278 277 275 272 270 270 270 269 267 265 263 261 259 257 255 253
303 303 303 303 302 302 302 303 303 302 301 301 301 301 301 301 301 300 300 300 300 301 301 302 301 299 298 298 299 299 300 300 301 302 303 303 302 301 300 299 297 295 293 289 287 285 283 281 280 278 278 279 280 281 282 282 282 281 280 282 282 282 281 281 280 280 279 277 275 275 275 273 271 271 271 271 270 269 268 267 265 263 260 258 255 253
303 302 301 301 300 300 301 302 302 302 302 301 301 302 302 301 300 299 298 299 300 300 300 300 299 299 299 299 299 299 299 299 300 301 302 302 302 302 302 302 302 301 298 296 295 293 290 286 282 278 275 272 272 275 278 280 280 280 279 279 279 278 278 279 280 280 278 276 275 273 271 268 267 268 269 269 269 269 269 268 267 265 262 259 256 253
301 300 299 299 299 299 299 301 302 301 301 301 301 301 302 302 301 299 298 299 299 299 298 298 298 298 298 298 299 300 300 300 300 301 302 302 302 303 303 305 306 307 305 304 302 300 298 295 290 284 279 273 270 271 275 278 280 280 280 279 277 277 277 278 279 280 279 278 276 274 271 268 266 266 265 265 266 267 268 268 267 266 264 261 258 254
300 299 298 298 298 298 299 300 300 300 300 300 300 300 301 302 302 302 301 301 300 300 300 299 298 297 296 296 298 299 299 300 300 301 302 303 303 303 303 306 308 309 309 307 306 304 303 301 297 295 291 285 279 274 273 277 281 283 282 280 279 278 277 278 279 280 279 278 277 275 272 268 266 264 262 261 263 265 267 267 266 266 264 262 259 256